SCP
0 0 0 0 0 0 0 0 0 0 0 0 0 0 0 0 -0 0 0 -0 0 -0 -0 0 0 0 0 0 0 0 -0 -0 -0 0 -0 0 0 -0 -0 -0 0 0 0 -0 -0
0 0 0 0 0 0 0 0 0 0 0 0 0 0 0 0 0 0 0 -0 -0 -0 0 0 0 0 0 0 -0 -0 -0 0 0 -0 -0 0 -0 -0 -0 0 0 -0 -0 -0 -0
0 0 0 0 0 0 0 0 0 0 0 0 0 0 0 0 0 0 0 -0 -0 -0 -0 -0 0 0 -0 0 0 -0 -0 0 0 0 -0 -0 -0 -0 -0 0 0 -0 -0 -0 -0
0 0 0 0 0 0 0 0 0 0 0 0 0 0 0 0 0 0 -0 -0 -0 -0 -0 0 0 0 -0 -0 0 0 0 0 -0 0 -0 0 -0 0 -0 0 -0 -0 -0 -0 -0
0 0 0 0 0 0 0 0 0 0 0 0 -0 -0 0 0 0 0 0 -0 -0 -0 -0 -0 0 -0 -0 0 -0 0 -0 -0 -0 -0 0 0 0 0 -0 0 -0 -0 -0 -0 -0
0 0 0 0 0 0 0 0 0 0 0 -0 -0 -0 0 0 0 0 0 -0 -0 0 -0 0 0 0 0 0 0 -0 0 -0 -0 0 0 0 0 0 -0 -0 -0 -0 -0 -0 -0
-0 0 0 0 0 0 0 0 0 0 -0 -0 -0 -0 0 0 0 0 -0 0 -0 0 0 0 0 0 0 0 0 0 -0 0 -0 0 -0 -0 -0 0 0 -0 -0 -0 -0 -0 -0
-0 -0 -0 0 0 0 0 0 0 0 -0 -0 -0 -0 0 0 0 0 -0 0 0 0 0 0 0 0 0 0 0 0 0 -0 -0 -0 -0 0 -0 -0 0 -0 -0 -0 -0 -0 -0
0 -0 -0 -0 0 0 0 0 -0 0 -0 -0 -0 0 0 0 0 0 0 0 0 0 0 0 0 0 0 0 0 0 0 0 0 -0 -0 0 -0 -0 0 -0 -0 -0 -0 -0 -0
0 -0 -0 -0 -0 0 0 -0 -0 -0 -0 -0 0 0 0 0 0 0 0 0 0 0 0 0 0 -0 -0 0 0 0 -0 -0 0 -0 -0 0 0 -0 0 -0 -0 -0 -0 -0 -0
-0 -0 -0 -0 -0 -0 0 -0 -0 -0 -0 0 0 0 0 0 0 0 0 0 0 0 0 -0 -0 -0 -0 0 0 0 -0 -0 0 -0 -0 -0 -0 -0 -0 0 -0 -0 -0 -0 -0
-0 -0 -0 -0 -0 0 0 0 0 0 0 0 0 0 0 0 0 0 0 0 0 0 0 0 -0 -0 0 0 0 0 0 -0 0 -0 -0 -0 -0 -0 -0 -0 0 -0 0 -0 -0
0 0 -0 -0 -0 -0 0 0 0 -0 -0 0 0 0 0 0 0 0 0 0 0 0 0 0 0 0 0 -0 0 -0 0 -0 -0 -0 0 -0 -0 -0 -0 -0 0 -0 0 0 -0
0 0 0 -0 0 0 0 0 0 -0 0 0 0 0 0 0 0 0 0 0 0 0 0 0 0 0 0 0 0 -0 0 -0 -0 -0 -0 -0 0 0 0 0 0 0 0 0 0
0 0 0 0 0 0 0 0 0 -0 0 0 0 0 0 0 0 0 0 0 0 0 0 0 0 0 0 0 -0 0 -0 -0 -0 0 0 0 -0 0 0 0 0 0 -0 0 0
0 0 0 0 0 0 0 0 -0 0 0 0 0 0 0 0 0 0 0 0 0 0 0 0 0 0 0 0 0 -0 -0 0 0 0 0 0 -0 0 0 0 0 -0 0 0 -0
0 -0 0 0 0 0 0 0 0 0 0 0 0 0 0 0 0 0 0 0 0 0 0 0 0 0 0 0 0 0 -0 0 0 0 0 0 0 0 0 0 0 0 0 0 0
0 -0 0 0 0 0 0 0 0 0 0 0 0 0 0 0 0 0 0 0 0 0 0 0 0 0 0 0 0 -0 -0 0 0 0 0 0 0 0 0 0 0 0 0 0 0
0 0 0 -0 0 0 0 0 0 0 0 0 0 0 0 0 0 0 0 0 0 0 0 0 0 0 0 0 0 0 0 0 0 0 0 0 0 0 0 0 0 0 0 0 0
0 0 0 0 0 0 0 0 0 0 0 0 0 0 0 0 0 0 0 0 0 0 0 0 0 0 0 0 0 0 0 0 0 0 0 0 0 0 0 0 0 0 0 0 0
0 0 0 0 0 0 0 0 0 0 0 0 0 0 0 0 0 0 0 0 0 0 0 0 0 0 0 0 0 0 0 0 0 0 0 0 0 0 0 0 0 0 0 0 0
0 0 0 0 0 0 0 0 0 0 0 0 0 0 0 0 0 0 0 0 0 0 0 0 0 0 0 0 0 0 0 0 0 0 0 0 0 0 0 0 0 0 0 0 0
0 0 0 0 0 0 0 0 0 0 0 0 0 0 0 0 0 0 0 0 0 0 0 0 0 0 0 0 0 0 0 0 0 0 0 0 0 0 0 0 0 0 0 0 0
0 0 0 0 0 0 0 0 0 0 0 0 0 0 0 0 0 0 0 0 0 0 0 0 0 0 0 0 0 0 0 0 0 0 0 0 0 0 0 0 0 0 0 0 0
0 0 0 0 0 0 0 0 0 0 0 0 0 0 0 0 0 0 0 0 0 0 0 0 0 0 0 0 0 0 0 0 0 0 0 0 0 0 0 0 0 0 0 0 0
0 0 0 0 0 0 0 0 0 0 0 0 0 0 0 0 0 0 0 0 0 0 0 0 0 0 0 0 0 0 0 0 0 0 0 0 0 0 0 0 0 0 0 0 0
0 0 0 0 0 0 0 0 0 0 0 0 0 0 0 0 0 0 0 0 0 0 0 0 0 0 0 0 0 0 0 0 0 0 0 0 0 0 0 0 0 0 0 0 0
Wind_Speed_500mb
27 30 34 36 37 38 37 37 38 36 37 34 35 34 26 16 12 7 6 14 26 20 22 28 23 19 13 13 9 8 12 12 18 14 20 21 16 9 11 21 14 10 18 36 39
28 30 33 36 38 40 40 38 38 36 35 35 33 32 24 15 7 5 12 22 21 21 26 30 28 23 16 13 9 16 6 11 5 7 9 17 9 20 13 19 21 23 27 43 41
30 32 34 37 39 40 41 39 38 36 34 34 30 27 18 7 7 8 20 18 18 23 24 21 23 21 16 14 11 6 14 8 12 3 1 14 10 9 8 14 16 27 45 46 41
33 35 36 39 41 41 41 40 38 36 32 31 26 22 12 2 1 7 20 18 19 29 23 22 24 25 18 16 7 12 6 4 13 8 7 14 5 9 2 15 13 27 49 48 42
34 35 37 39 42 43 43 41 37 33 31 27 21 16 4 5 6 8 16 22 26 32 19 20 28 25 20 15 9 7 9 8 7 7 6 11 10 4 21 13 24 34 46 43 39
36 38 38 40 42 43 42 40 35 30 28 22 16 10 1 10 5 9 17 26 25 25 17 18 19 12 15 14 9 6 6 8 7 11 11 11 8 9 16 18 31 36 38 38 34
37 40 41 41 42 42 42 37 31 26 20 14 12 8 7 3 9 10 18 21 23 17 14 10 12 14 15 19 10 8 18 13 12 15 9 7 16 12 12 18 29 32 32 32 32
37 40 42 41 42 41 40 31 28 18 15 9 11 4 5 11 7 10 21 23 33 15 10 7 4 7 9 7 15 17 15 23 18 16 10 11 19 26 9 21 26 29 29 28 28
39 41 43 43 42 41 33 28 19 16 12 9 12 2 9 6 5 13 23 23 24 15 10 7 6 6 11 22 21 17 22 23 19 16 8 16 14 13 11 16 25 27 26 26 24
40 41 43 43 43 38 27 24 15 13 9 10 8 9 8 6 9 17 22 23 20 19 14 13 14 17 16 17 22 24 24 28 25 17 17 18 7 10 12 14 22 24 25 25 22
40 42 43 42 42 26 22 16 14 3 13 15 9 14 7 4 14 20 22 19 18 25 23 24 21 28 31 32 10 14 28 33 14 8 13 6 4 9 8 13 19 23 24 24 22
40 43 44 41 31 30 13 9 14 13 22 22 26 28 23 8 16 29 25 26 23 27 16 16 28 19 6 14 16 16 24 20 15 8 15 13 12 7 8 9 14 15 15 12 15
40 42 44 43 18 31 9 10 25 23 17 13 12 14 15 26 18 37 36 33 25 26 27 26 17 18 22 22 22 22 27 28 28 19 5 14 17 17 13 14 16 19 13 8 9
38 44 45 45 15 34 5 20 30 11 11 10 8 10 19 19 18 30 45 30 18 27 25 22 22 19 22 29 27 21 17 24 26 29 18 12 4 18 17 16 17 20 15 10 6
36 43 44 41 41 25 15 26 22 6 10 6 9 5 23 26 22 26 39 29 25 21 16 17 26 26 27 27 26 11 22 25 28 23 9 20 15 14 10 20 24 24 15 10 8
38 40 45 48 46 15 18 19 3 12 9 2 6 16 24 30 17 24 33 27 12 14 23 9 5 10 14 10 12 27 27 16 15 12 18 11 14 11 12 2 7 27 19 15 16
41 41 44 46 29 36 17 5 11 14 4 4 6 4 27 22 17 23 31 34 20 20 25 22 26 12 19 27 28 21 29 13 17 15 14 14 13 18 4 4 10 22 27 24 22
42 44 44 43 32 22 7 10 19 3 13 6 10 16 21 23 27 23 27 30 31 22 21 26 24 27 24 27 25 32 29 11 16 16 10 15 13 6 6 3 14 19 33 27 26
40 40 41 33 22 21 18 18 8 10 5 13 17 12 23 27 11 25 27 30 32 27 12 23 23 13 16 13 24 20 21 9 8 4 16 8 10 9 4 12 27 29 27 29 30
39 35 21 22 16 15 20 22 9 5 2 9 7 5 12 27 26 30 24 26 33 28 29 5 16 16 18 21 10 14 17 12 15 12 17 11 11 3 17 15 21 26 32 29 27
26 14 15 6 3 17 18 20 22 12 5 5 5 12 10 10 28 23 22 12 36 27 27 11 9 16 18 22 28 12 16 4 6 9 11 10 8 16 5 1 6 22 29 24 27
11 12 10 5 17 12 17 14 10 12 10 10 6 15 18 10 16 25 20 19 22 25 20 15 9 21 23 6 10 12 18 19 16 20 11 12 8 16 7 5 4 4 5 9 15
10 17 13 8 11 15 11 18 15 13 13 6 9 8 13 10 7 17 11 4 10 22 20 18 9 16 13 11 8 18 16 12 8 1 14 14 9 16 7 5 8 9 11 11 11
9 7 12 13 8 14 10 18 17 9 14 14 11 8 16 14 8 7 11 5 7 16 6 14 10 26 24 29 29 21 26 25 19 12 17 18 9 16 4 6 9 10 10 10 10
8 1 5 5 11 11 11 0 10 7 10 5 10 19 1 8 14 8 6 11 9 12 9 12 27 18 5 1 19 31 32 29 24 14 15 11 15 11 5 9 11 11 9 12 18
8 8 4 9 8 11 11 14 11 3 6 9 14 5 5 11 6 14 17 5 1 11 13 10 13 16 9 13 22 23 26 26 16 17 7 7 9 6 6 5 3 4 8 16 21
7 8 8 3 7 11 9 3 5 6 5 15 10 12 12 7 9 11 10 9 8 4 11 12 14 14 16 16 21 24 29 26 20 19 13 16 11 2 5 3 4 8 10 16 21
Wind_Direction_500mb
349 347 344 342 339 338 339 342 341 342 342 343 337 335 326 325 306 261 201 191 170 166 164 157 159 165 175 195 214 250 236 156 123 180 129 144 156 130 113 119 108 97 105 139 146
348 346 342 339 338 336 337 338 337 337 339 340 338 337 333 342 62 149 172 160 169 162 156 162 166 163 173 187 204 254 167 82 50 77 128 133 212 135 168 133 123 111 126 141 145
348 346 341 338 336 335 334 334 332 332 335 337 336 339 335 347 129 132 157 149 157 161 168 176 170 173 176 193 171 185 93 88 79 146 238 140 173 140 192 141 142 150 151 152 153
345 345 341 337 334 334 331 330 328 327 328 331 332 339 337 212 104 156 176 160 158 159 167 172 178 181 170 184 162 195 85 77 76 99 155 181 128 154 358 87 130 150 159 157 161
343 342 340 337 333 332 330 327 324 322 321 323 325 336 3 264 110 170 175 169 162 162 179 189 182 176 170 152 156 173 115 115 93 154 159 152 187 43 120 98 129 141 158 165 166
340 340 339 337 334 330 330 324 323 319 315 320 317 329 323 226 192 177 162 171 173 173 185 181 186 203 145 147 227 150 159 136 141 147 148 210 142 212 101 115 135 146 159 168 173
340 339 339 339 334 330 329 325 322 318 317 323 318 311 233 340 182 184 173 177 183 176 178 180 159 206 160 150 132 165 177 163 184 173 145 206 186 153 109 137 137 148 157 166 176
342 340 340 339 332 331 329 326 325 317 320 319 319 294 226 212 197 198 185 183 172 180 158 178 185 187 235 123 162 187 207 177 153 176 149 233 116 103 124 167 148 153 159 170 178
344 343 342 339 332 331 330 329 322 325 313 290 323 238 169 204 210 195 181 173 176 193 192 182 178 208 187 206 185 198 197 203 162 202 158 238 90 104 140 166 157 159 168 169 173
345 346 347 340 334 334 336 328 317 314 313 301 278 232 190 141 168 168 174 162 173 176 164 199 207 214 209 215 202 186 215 180 162 169 212 193 100 121 139 165 176 176 188 187 190
345 345 348 343 338 346 355 7 341 310 296 264 281 294 173 202 176 175 178 172 179 191 203 202 220 211 197 213 19 181 189 176 120 153 221 215 124 147 158 183 196 202 199 197 207
344 344 346 346 344 360 33 58 44 331 301 281 255 252 243 185 181 189 186 197 197 207 192 203 228 208 214 186 197 200 195 173 137 157 243 183 186 187 227 223 224 222 212 204 208
343 343 344 349 348 5 48 24 348 336 261 282 233 230 211 190 207 192 191 206 209 218 207 232 195 160 177 183 196 210 206 182 179 154 171 190 209 206 202 233 240 229 207 209 232
337 338 344 349 12 344 326 327 337 342 274 136 199 204 175 180 212 206 198 201 212 223 209 226 169 197 201 198 212 184 205 188 154 187 190 214 244 182 198 227 235 226 203 199 211
327 331 336 343 332 335 280 321 331 336 281 62 141 170 169 179 133 188 193 206 231 201 205 176 187 201 201 199 199 100 176 174 178 209 195 177 260 112 160 238 230 226 205 194 171
313 323 327 334 331 313 310 317 338 239 240 77 130 179 172 196 173 149 188 216 253 232 222 234 202 230 194 118 189 131 130 143 192 185 219 182 250 217 144 171 206 206 200 185 173
303 311 316 321 313 307 305 299 240 246 25 80 21 190 207 181 170 182 186 198 204 197 207 198 202 184 182 127 150 163 162 165 199 203 242 138 215 291 87 236 240 179 179 176 179
299 302 307 315 305 306 260 202 242 282 267 354 313 270 227 205 199 185 192 201 215 246 202 193 172 177 191 200 180 195 194 226 211 218 206 145 236 140 21 315 186 169 162 168 179
304 304 308 309 279 288 231 210 245 235 358 331 302 251 197 209 240 197 207 210 204 215 247 205 161 147 202 172 184 164 212 5 299 261 283 189 154 178 182 154 157 166 177 189 196
310 310 287 298 277 203 230 229 243 267 3 307 297 316 248 191 200 205 182 204 211 224 233 221 147 182 141 149 76 208 151 186 220 242 249 165 263 122 153 165 175 184 199 206 217
311 288 232 310 168 205 227 221 241 231 277 276 328 321 298 239 209 197 205 197 205 195 212 253 263 160 167 203 181 166 188 234 5 330 292 233 174 67 102 68 231 213 219 231 242
291 243 224 269 229 212 230 214 228 229 228 253 294 293 277 300 220 217 214 221 200 177 192 203 263 176 190 78 340 235 206 189 229 166 236 330 77 104 75 40 24 13 317 315 300
275 271 276 224 243 211 200 232 232 229 242 243 238 245 303 298 280 220 209 147 199 196 209 177 202 168 163 161 169 198 173 184 109 129 182 243 130 131 110 98 61 19 0 339 338
285 262 194 211 256 295 221 220 223 210 246 242 260 275 285 289 216 245 198 144 189 212 271 221 201 230 209 204 176 183 180 186 187 204 170 229 105 170 157 341 360 19 358 7 27
245 110 320 193 177 250 257 331 218 225 224 238 238 231 32 307 305 242 212 165 146 156 163 205 209 225 325 186 199 197 179 181 201 212 228 151 226 107 12 355 357 351 25 58 64
287 312 276 280 281 236 175 220 253 252 265 198 238 135 259 167 321 310 334 283 59 173 177 197 179 189 180 196 202 201 186 186 185 177 191 206 208 62 5 324 355 43 80 87 81
275 290 285 169 209 228 183 224 194 333 228 263 313 304 246 118 300 317 314 345 343 238 162 190 161 195 190 192 186 199 190 188 173 180 213 214 78 155 239 211 152 107 87 92 92
Wind_Speed_850mb
27 30 34 36 37 38 37 37 38 36 37 34 35 34 26 16 12 7 6 14 26 20 22 28 23 19 13 13 9 8 12 12 18 14 20 21 16 9 11 21 14 10 18 36 39
28 30 33 36 38 40 40 38 38 36 35 35 33 32 24 15 7 5 12 22 21 21 26 30 28 23 16 13 9 16 6 11 5 7 9 17 9 20 13 19 21 23 27 43 41
30 32 34 37 39 40 41 39 38 36 34 34 30 27 18 7 7 8 20 18 18 23 24 21 23 21 16 14 11 6 14 8 12 3 1 14 10 9 8 14 16 27 45 46 41
33 35 36 39 41 41 41 40 38 36 32 31 26 22 12 2 1 7 20 18 19 29 23 22 24 25 18 16 7 12 6 4 13 8 7 14 5 9 2 15 13 27 49 48 42
34 35 37 39 42 43 43 41 37 33 31 27 21 16 4 5 6 8 16 22 26 32 19 20 28 25 20 15 9 7 9 8 7 7 6 11 10 4 21 13 24 34 46 43 39
36 38 38 40 42 43 42 40 35 30 28 22 16 10 1 10 5 9 17 26 25 25 17 18 19 12 15 14 9 6 6 8 7 11 11 11 8 9 16 18 31 36 38 38 34
37 40 41 41 42 42 42 37 31 26 20 14 12 8 7 3 9 10 18 21 23 17 14 10 12 14 15 19 10 8 18 13 12 15 9 7 16 12 12 18 29 32 32 32 32
37 40 42 41 42 41 40 31 28 18 15 9 11 4 5 11 7 10 21 23 33 15 10 7 4 7 9 7 15 17 15 23 18 16 10 11 19 26 9 21 26 29 29 28 28
39 41 43 43 42 41 33 28 19 16 12 9 12 2 9 6 5 13 23 23 24 15 10 7 6 6 11 22 21 17 22 23 19 16 8 16 14 13 11 16 25 27 26 26 24
40 41 43 43 43 38 27 24 15 13 9 10 8 9 8 6 9 17 22 23 20 19 14 13 14 17 16 17 22 24 24 28 25 17 17 18 7 10 12 14 22 24 25 25 22
40 42 43 42 42 26 22 16 14 3 13 15 9 14 7 4 14 20 22 19 18 25 23 24 21 28 31 32 10 14 28 33 14 8 13 6 4 9 8 13 19 23 24 24 22
40 43 44 41 31 30 13 9 14 13 22 22 26 28 23 8 16 29 25 26 23 27 16 16 28 19 6 14 16 16 24 20 15 8 15 13 12 7 8 9 14 15 15 12 15
40 42 44 43 18 31 9 10 25 23 17 13 12 14 15 26 18 37 36 33 25 26 27 26 17 18 22 22 22 22 27 28 28 19 5 14 17 17 13 14 16 19 13 8 9
38 44 45 45 15 34 5 20 30 11 11 10 8 10 19 19 18 30 45 30 18 27 25 22 22 19 22 29 27 21 17 24 26 29 18 12 4 18 17 16 17 20 15 10 6
36 43 44 41 41 25 15 26 22 6 10 6 9 5 23 26 22 26 39 29 25 21 16 17 26 26 27 27 26 11 22 25 28 23 9 20 15 14 10 20 24 24 15 10 8
38 40 45 48 46 15 18 19 3 12 9 2 6 16 24 30 17 24 33 27 12 14 23 9 5 10 14 10 12 27 27 16 15 12 18 11 14 11 12 2 7 27 19 15 16
41 41 44 46 29 36 17 5 11 14 4 4 6 4 27 22 17 23 31 34 20 20 25 22 26 12 19 27 28 21 29 13 17 15 14 14 13 18 4 4 10 22 27 24 22
42 44 44 43 32 22 7 10 19 3 13 6 10 16 21 23 27 23 27 30 31 22 21 26 24 27 24 27 25 32 29 11 16 16 10 15 13 6 6 3 14 19 33 27 26
40 40 41 33 22 21 18 18 8 10 5 13 17 12 23 27 11 25 27 30 32 27 12 23 23 13 16 13 24 20 21 9 8 4 16 8 10 9 4 12 27 29 27 29 30
39 35 21 22 16 15 20 22 9 5 2 9 7 5 12 27 26 30 24 26 33 28 29 5 16 16 18 21 10 14 17 12 15 12 17 11 11 3 17 15 21 26 32 29 27
26 14 15 6 3 17 18 20 22 12 5 5 5 12 10 10 28 23 22 12 36 27 27 11 9 16 18 22 28 12 16 4 6 9 11 10 8 16 5 1 6 22 29 24 27
11 12 10 5 17 12 17 14 10 12 10 10 6 15 18 10 16 25 20 19 22 25 20 15 9 21 23 6 10 12 18 19 16 20 11 12 8 16 7 5 4 4 5 9 15
10 17 13 8 11 15 11 18 15 13 13 6 9 8 13 10 7 17 11 4 10 22 20 18 9 16 13 11 8 18 16 12 8 1 14 14 9 16 7 5 8 9 11 11 11
9 7 12 13 8 14 10 18 17 9 14 14 11 8 16 14 8 7 11 5 7 16 6 14 10 26 24 29 29 21 26 25 19 12 17 18 9 16 4 6 9 10 10 10 10
8 1 5 5 11 11 11 0 10 7 10 5 10 19 1 8 14 8 6 11 9 12 9 12 27 18 5 1 19 31 32 29 24 14 15 11 15 11 5 9 11 11 9 12 18
8 8 4 9 8 11 11 14 11 3 6 9 14 5 5 11 6 14 17 5 1 11 13 10 13 16 9 13 22 23 26 26 16 17 7 7 9 6 6 5 3 4 8 16 21
7 8 8 3 7 11 9 3 5 6 5 15 10 12 12 7 9 11 10 9 8 4 11 12 14 14 16 16 21 24 29 26 20 19 13 16 11 2 5 3 4 8 10 16 21
Wind_Direction_850mb
349 347 344 342 339 338 339 342 341 342 342 343 337 335 326 325 306 261 201 191 170 166 164 157 159 165 175 195 214 250 236 156 123 180 129 144 156 130 113 119 108 97 105 139 146
348 346 342 339 338 336 337 338 337 337 339 340 338 337 333 342 62 149 172 160 169 162 156 162 166 163 173 187 204 254 167 82 50 77 128 133 212 135 168 133 123 111 126 141 145
348 346 341 338 336 335 334 334 332 332 335 337 336 339 335 347 129 132 157 149 157 161 168 176 170 173 176 193 171 185 93 88 79 146 238 140 173 140 192 141 142 150 151 152 153
345 345 341 337 334 334 331 330 328 327 328 331 332 339 337 212 104 156 176 160 158 159 167 172 178 181 170 184 162 195 85 77 76 99 155 181 128 154 358 87 130 150 159 157 161
343 342 340 337 333 332 330 327 324 322 321 323 325 336 3 264 110 170 175 169 162 162 179 189 182 176 170 152 156 173 115 115 93 154 159 152 187 43 120 98 129 141 158 165 166
340 340 339 337 334 330 330 324 323 319 315 320 317 329 323 226 192 177 162 171 173 173 185 181 186 203 145 147 227 150 159 136 141 147 148 210 142 212 101 115 135 146 159 168 173
340 339 339 339 334 330 329 325 322 318 317 323 318 311 233 340 182 184 173 177 183 176 178 180 159 206 160 150 132 165 177 163 184 173 145 206 186 153 109 137 137 148 157 166 176
342 340 340 339 332 331 329 326 325 317 320 319 319 294 226 212 197 198 185 183 172 180 158 178 185 187 235 123 162 187 207 177 153 176 149 233 116 103 124 167 148 153 159 170 178
344 343 342 339 332 331 330 329 322 325 313 290 323 238 169 204 210 195 181 173 176 193 192 182 178 208 187 206 185 198 197 203 162 202 158 238 90 104 140 166 157 159 168 169 173
345 346 347 340 334 334 336 328 317 314 313 301 278 232 190 141 168 168 174 162 173 176 164 199 207 214 209 215 202 186 215 180 162 169 212 193 100 121 139 165 176 176 188 187 190
345 345 348 343 338 346 355 7 341 310 296 264 281 294 173 202 176 175 178 172 179 191 203 202 220 211 197 213 19 181 189 176 120 153 221 215 124 147 158 183 196 202 199 197 207
344 344 346 346 344 360 33 58 44 331 301 281 255 252 243 185 181 189 186 197 197 207 192 203 228 208 214 186 197 200 195 173 137 157 243 183 186 187 227 223 224 222 212 204 208
343 343 344 349 348 5 48 24 348 336 261 282 233 230 211 190 207 192 191 206 209 218 207 232 195 160 177 183 196 210 206 182 179 154 171 190 209 206 202 233 240 229 207 209 232
337 338 344 349 12 344 326 327 337 342 274 136 199 204 175 180 212 206 198 201 212 223 209 226 169 197 201 198 212 184 205 188 154 187 190 214 244 182 198 227 235 226 203 199 211
327 331 336 343 332 335 280 321 331 336 281 62 141 170 169 179 133 188 193 206 231 201 205 176 187 201 201 199 199 100 176 174 178 209 195 177 260 112 160 238 230 226 205 194 171
313 323 327 334 331 313 310 317 338 239 240 77 130 179 172 196 173 149 188 216 253 232 222 234 202 230 194 118 189 131 130 143 192 185 219 182 250 217 144 171 206 206 200 185 173
303 311 316 321 313 307 305 299 240 246 25 80 21 190 207 181 170 182 186 198 204 197 207 198 202 184 182 127 150 163 162 165 199 203 242 138 215 291 87 236 240 179 179 176 179
299 302 307 315 305 306 260 202 242 282 267 354 313 270 227 205 199 185 192 201 215 246 202 193 172 177 191 200 180 195 194 226 211 218 206 145 236 140 21 315 186 169 162 168 179
304 304 308 309 279 288 231 210 245 235 358 331 302 251 197 209 240 197 207 210 204 215 247 205 161 147 202 172 184 164 212 5 299 261 283 189 154 178 182 154 157 166 177 189 196
310 310 287 298 277 203 230 229 243 267 3 307 297 316 248 191 200 205 182 204 211 224 233 221 147 182 141 149 76 208 151 186 220 242 249 165 263 122 153 165 175 184 199 206 217
311 288 232 310 168 205 227 221 241 231 277 276 328 321 298 239 209 197 205 197 205 195 212 253 263 160 167 203 181 166 188 234 5 330 292 233 174 67 102 68 231 213 219 231 242
291 243 224 269 229 212 230 214 228 229 228 253 294 293 277 300 220 217 214 221 200 177 192 203 263 176 190 78 340 235 206 189 229 166 236 330 77 104 75 40 24 13 317 315 300
275 271 276 224 243 211 200 232 232 229 242 243 238 245 303 298 280 220 209 147 199 196 209 177 202 168 163 161 169 198 173 184 109 129 182 243 130 131 110 98 61 19 0 339 338
285 262 194 211 256 295 221 220 223 210 246 242 260 275 285 289 216 245 198 144 189 212 271 221 201 230 209 204 176 183 180 186 187 204 170 229 105 170 157 341 360 19 358 7 27
245 110 320 193 177 250 257 331 218 225 224 238 238 231 32 307 305 242 212 165 146 156 163 205 209 225 325 186 199 197 179 181 201 212 228 151 226 107 12 355 357 351 25 58 64
287 312 276 280 281 236 175 220 253 252 265 198 238 135 259 167 321 310 334 283 59 173 177 197 179 189 180 196 202 201 186 186 185 177 191 206 208 62 5 324 355 43 80 87 81
275 290 285 169 209 228 183 224 194 333 228 263 313 304 246 118 300 317 314 345 343 238 162 190 161 195 190 192 186 199 190 188 173 180 213 214 78 155 239 211 152 107 87 92 92